QPF
0.00 0.00 0.00 0.00 0.00 0.00 0.00 0.00 0.00 0.01 0.01 0.01 0.01 0.01 0.01 0.01 0.01 0.02 0.02 0.02 0.03 0.04 0.04 0.02 0.03 0.03 0.04 0.03 0.02 0.02 0.02 0.04 0.05 0.04 0.04 0.03 0.03 0.03 0.03 0.02 0.02 0.02 0.01 0.01
0.00 0.00 0.00 0.00 0.00 0.00 0.00 0.00 0.00 0.01 0.00 0.00 0.01 0.01 0.01 0.02 0.02 0.02 0.02 0.01 0.01 0.02 0.03 0.04 0.04 0.03 0.04 0.04 0.03 0.04 0.05 0.06 0.06 0.07 0.07 0.05 0.05 0.05 0.04 0.03 0.02 0.02 0.01 0.01
0.00 0.00 0.00 0.00 0.00 0.00 0.00 0.00 0.00 0.01 0.00 0.00 0.00 0.01 0.01 0.01 0.01 0.01 0.01 0.01 0.01 0.01 0.03 0.05 0.05 0.05 0.05 0.05 0.06 0.08 0.11 0.12 0.12 0.12 0.08 0.06 0.06 0.06 0.05 0.04 0.04 0.03 0.03 0.02
0.00 0.00 0.01 0.01 0.01 0.01 0.01 0.00 0.01 0.01 0.01 0.01 0.01 0.01 0.02 0.02 0.01 0.01 0.01 0.02 0.02 0.01 0.02 0.06 0.08 0.09 0.11 0.10 0.09 0.09 0.11 0.16 0.15 0.10 0.07 0.06 0.06 0.07 0.08 0.08 0.05 0.04 0.04 0.03
0.00 0.00 0.00 0.01 0.01 0.01 0.02 0.02 0.02 0.02 0.02 0.01 0.01 0.02 0.02 0.02 0.02 0.01 0.01 0.01 0.01 0.01 0.01 0.06 0.10 0.09 0.10 0.13 0.12 0.10 0.10 0.11 0.12 0.09 0.07 0.06 0.06 0.07 0.08 0.08 0.08 0.07 0.06 0.06
0.00 0.00 0.00 0.01 0.01 0.01 0.02 0.03 0.04 0.03 0.03 0.02 0.02 0.02 0.02 0.02 0.02 0.01 0.01 0.01 0.01 0.01 0.01 0.03 0.09 0.10 0.08 0.09 0.11 0.10 0.08 0.07 0.06 0.06 0.06 0.06 0.07 0.07 0.08 0.09 0.09 0.10 0.08 0.08
0.00 0.00 0.01 0.01 0.01 0.02 0.02 0.03 0.04 0.03 0.03 0.03 0.03 0.02 0.02 0.02 0.02 0.02 0.01 0.02 0.01 0.01 0.01 0.01 0.03 0.05 0.05 0.07 0.08 0.07 0.06 0.05 0.06 0.07 0.08 0.09 0.09 0.08 0.07 0.07 0.06 0.05 0.04 0.05
0.00 0.00 0.01 0.01 0.01 0.02 0.02 0.03 0.03 0.02 0.03 0.03 0.03 0.02 0.02 0.03 0.03 0.03 0.02 0.02 0.02 0.01 0.01 0.01 0.01 0.01 0.01 0.02 0.03 0.04 0.04 0.04 0.05 0.06 0.09 0.10 0.06 0.04 0.03 0.03 0.03 0.02 0.01 0.02
0.00 0.00 0.00 0.01 0.01 0.02 0.03 0.03 0.03 0.03 0.03 0.03 0.03 0.03 0.03 0.03 0.03 0.02 0.02 0.03 0.02 0.01 0.01 0.01 0.01 0.01 0.01 0.01 0.02 0.03 0.03 0.03 0.03 0.04 0.05 0.05 0.04 0.03 0.02 0.02 0.02 0.01 0.01 0.01
0.00 0.00 0.00 0.01 0.01 0.02 0.03 0.03 0.03 0.03 0.03 0.03 0.04 0.04 0.04 0.04 0.04 0.04 0.05 0.06 0.06 0.04 0.02 0.02 0.02 0.02 0.02 0.02 0.02 0.03 0.03 0.03 0.03 0.04 0.05 0.05 0.03 0.03 0.03 0.02 0.02 0.01 0.01 0.00
0.01 0.01 0.01 0.01 0.01 0.02 0.03 0.03 0.03 0.02 0.02 0.04 0.05 0.05 0.05 0.07 0.07 0.08 0.09 0.09 0.09 0.08 0.05 0.05 0.04 0.03 0.03 0.03 0.03 0.03 0.03 0.04 0.04 0.04 0.04 0.04 0.03 0.03 0.03 0.02 0.02 0.01 0.01 0.00
0.01 0.01 0.01 0.01 0.01 0.02 0.02 0.03 0.03 0.03 0.03 0.04 0.04 0.04 0.05 0.06 0.06 0.07 0.09 0.11 0.10 0.08 0.06 0.04 0.03 0.03 0.04 0.05 0.05 0.05 0.04 0.04 0.04 0.03 0.03 0.04 0.03 0.03 0.03 0.03 0.02 0.01 0.01 0.01
0.01 0.01 0.01 0.01 0.01 0.02 0.02 0.03 0.04 0.04 0.03 0.03 0.03 0.04 0.05 0.05 0.05 0.04 0.05 0.08 0.10 0.09 0.07 0.07 0.05 0.05 0.04 0.05 0.05 0.05 0.05 0.04 0.04 0.03 0.03 0.03 0.03 0.02 0.03 0.02 0.01 0.01 0.01 0.01
0.01 0.01 0.01 0.01 0.01 0.02 0.05 0.06 0.06 0.05 0.04 0.03 0.03 0.04 0.05 0.05 0.05 0.05 0.05 0.07 0.08 0.08 0.08 0.09 0.09 0.08 0.08 0.08 0.07 0.06 0.05 0.04 0.04 0.04 0.04 0.03 0.03 0.03 0.02 0.01 0.01 0.01 0.01 0.01
0.02 0.02 0.02 0.02 0.02 0.04 0.06 0.06 0.05 0.05 0.06 0.07 0.06 0.07 0.07 0.07 0.07 0.07 0.07 0.07 0.08 0.10 0.11 0.13 0.11 0.09 0.09 0.10 0.10 0.08 0.06 0.04 0.04 0.03 0.04 0.04 0.04 0.04 0.03 0.02 0.01 0.01 0.01 0.01
0.02 0.02 0.02 0.02 0.03 0.04 0.03 0.02 0.03 0.06 0.08 0.08 0.06 0.08 0.09 0.10 0.08 0.07 0.09 0.08 0.09 0.12 0.14 0.15 0.12 0.08 0.07 0.09 0.11 0.10 0.08 0.07 0.05 0.04 0.03 0.03 0.02 0.02 0.01 0.01 0.00 0.00 0.01 0.01
0.02 0.02 0.02 0.03 0.03 0.03 0.02 0.01 0.03 0.05 0.06 0.05 0.05 0.05 0.06 0.07 0.07 0.07 0.06 0.05 0.03 0.03 0.04 0.06 0.07 0.07 0.06 0.06 0.07 0.07 0.08 0.07 0.05 0.04 0.03 0.02 0.01 0.01 0.01 0.00 0.00 0.01 0.01 0.01
0.03 0.02 0.02 0.02 0.03 0.03 0.02 0.02 0.02 0.03 0.03 0.03 0.02 0.03 0.03 0.04 0.04 0.04 0.04 0.03 0.03 0.02 0.02 0.02 0.03 0.03 0.03 0.03 0.03 0.04 0.04 0.04 0.03 0.03 0.02 0.02 0.02 0.01 0.01 0.01 0.01 0.01 0.01 0.00
0.05 0.04 0.03 0.02 0.01 0.01 0.01 0.01 0.02 0.02 0.01 0.01 0.01 0.02 0.02 0.02 0.03 0.03 0.03 0.03 0.02 0.01 0.01 0.01 0.02 0.02 0.02 0.02 0.02 0.02 0.02 0.02 0.02 0.02 0.01 0.02 0.01 0.02 0.02 0.02 0.01 0.01 0.01 0.00
0.04 0.05 0.05 0.03 0.01 0.00 0.00 0.01 0.01 0.01 0.01 0.01 0.01 0.01 0.01 0.02 0.02 0.02 0.03 0.03 0.03 0.03 0.02 0.01 0.01 0.02 0.02 0.02 0.02 0.02 0.02 0.02 0.01 0.01 0.01 0.01 0.01 0.01 0.01 0.01 0.01 0.01 0.01 0.01
0.03 0.04 0.04 0.02 0.01 0.01 0.01 0.01 0.01 0.01 0.02 0.02 0.02 0.01 0.01 0.01 0.01 0.01 0.02 0.02 0.03 0.02 0.02 0.02 0.02 0.02 0.02 0.02 0.02 0.02 0.02 0.02 0.02 0.01 0.01 0.01 0.01 0.02 0.01 0.01 0.01 0.01 0.01 0.01
0.05 0.05 0.04 0.02 0.02 0.02 0.02 0.02 0.02 0.02 0.02 0.02 0.01 0.01 0.00 0.00 0.00 0.01 0.01 0.01 0.01 0.02 0.01 0.01 0.02 0.02 0.03 0.03 0.03 0.03 0.02 0.02 0.01 0.01 0.02 0.02 0.01 0.02 0.02 0.02 0.01 0.01 0.02 0.02
0.06 0.05 0.05 0.04 0.03 0.02 0.02 0.02 0.02 0.01 0.01 0.01 0.01 0.00 0.00 0.00 0.00 0.00 0.01 0.00 0.01 0.01 0.01 0.01 0.02 0.04 0.04 0.03 0.03 0.02 0.02 0.02 0.02 0.02 0.02 0.02 0.02 0.01 0.01 0.02 0.02 0.02 0.02 0.01
0.05 0.05 0.04 0.03 0.03 0.02 0.02 0.01 0.01 0.01 0.01 0.01 0.01 0.01 0.00 0.00 0.00 0.00 0.00 0.01 0.01 0.01 0.01 0.01 0.01 0.02 0.03 0.02 0.01 0.01 0.01 0.01 0.01 0.01 0.01 0.02 0.01 0.01 0.01 0.02 0.02 0.01 0.02 0.02
0.05 0.04 0.03 0.03 0.02 0.02 0.02 0.01 0.01 0.01 0.02 0.01 0.01 0.01 0.02 0.02 0.01 0.02 0.02 0.01 0.01 0.01 0.01 0.01 0.01 0.02 0.03 0.02 0.02 0.02 0.02 0.02 0.02 0.02 0.02 0.02 0.01 0.01 0.01 0.01 0.01 0.01 0.01 0.01
0.06 0.04 0.03 0.03 0.03 0.03 0.03 0.02 0.02 0.02 0.02 0.02 0.02 0.02 0.03 0.02 0.01 0.01 0.01 0.01 0.01 0.01 0.01 0.02 0.02 0.03 0.03 0.04 0.04 0.03 0.02 0.02 0.02 0.01 0.01 0.01 0.01 0.01 0.01 0.01 0.01 0.01 0.01 0.01
0.04 0.04 0.03 0.03 0.03 0.03 0.03 0.04 0.04 0.03 0.03 0.03 0.03 0.03 0.03 0.02 0.01 0.01 0.01 0.01 0.01 0.01 0.02 0.02 0.01 0.01 0.01 0.02 0.03 0.04 0.03 0.04 0.04 0.03 0.02 0.01 0.01 0.01 0.01 0.01 0.01 0.01 0.01 0.01
MSLP
1007.44 1008.20 1008.93 1009.56 1010.02 1010.27 1010.27 1010.00 1009.47 1008.72 1007.83 1006.87 1005.92 1005.07 1004.40 1003.92 1003.67 1003.62 1003.73 1003.96 1004.25 1004.56 1004.86 1005.14 1005.39 1005.65 1005.92 1006.24 1006.60 1007.01 1007.46 1007.92 1008.38 1008.79 1009.15 1009.45 1009.68 1009.85 1009.99 1010.09 1010.19 1010.28 1010.37 1010.47
1007.49 1008.10 1008.60 1008.97 1009.15 1009.13 1008.91 1008.49 1007.92 1007.23 1006.48 1005.73 1005.03 1004.44 1003.97 1003.66 1003.49 1003.44 1003.50 1003.62 1003.79 1003.98 1004.18 1004.39 1004.63 1004.91 1005.23 1005.61 1006.04 1006.51 1006.99 1007.47 1007.92 1008.32 1008.66 1008.94 1009.15 1009.32 1009.46 1009.58 1009.70 1009.81 1009.91 1010.01
1007.52 1007.94 1008.21 1008.30 1008.21 1007.95 1007.54 1007.01 1006.42 1005.80 1005.21 1004.67 1004.21 1003.85 1003.59 1003.42 1003.33 1003.29 1003.30 1003.34 1003.41 1003.50 1003.62 1003.80 1004.04 1004.34 1004.72 1005.16 1005.66 1006.18 1006.70 1007.18 1007.63 1008.01 1008.33 1008.58 1008.78 1008.95 1009.10 1009.23 1009.36 1009.49 1009.61 1009.70
1007.42 1007.64 1007.68 1007.53 1007.20 1006.73 1006.17 1005.58 1005.00 1004.48 1004.04 1003.70 1003.47 1003.32 1003.24 1003.20 1003.19 1003.18 1003.16 1003.15 1003.14 1003.17 1003.26 1003.42 1003.67 1004.02 1004.45 1004.96 1005.50 1006.06 1006.60 1007.09 1007.52 1007.88 1008.17 1008.40 1008.59 1008.76 1008.92 1009.07 1009.21 1009.35 1009.46 1009.55
1007.11 1007.13 1006.96 1006.60 1006.09 1005.48 1004.84 1004.23 1003.70 1003.28 1003.00 1002.86 1002.82 1002.87 1002.95 1003.03 1003.09 1003.12 1003.10 1003.07 1003.04 1003.05 1003.13 1003.31 1003.59 1003.98 1004.46 1005.01 1005.59 1006.17 1006.71 1007.19 1007.59 1007.92 1008.19 1008.40 1008.58 1008.75 1008.91 1009.07 1009.22 1009.36 1009.47 1009.53
1006.54 1006.38 1006.04 1005.53 1004.90 1004.22 1003.56 1002.99 1002.54 1002.26 1002.14 1002.17 1002.31 1002.52 1002.74 1002.94 1003.08 1003.15 1003.17 1003.15 1003.13 1003.16 1003.26 1003.46 1003.78 1004.21 1004.73 1005.31 1005.90 1006.48 1007.00 1007.46 1007.83 1008.13 1008.36 1008.55 1008.72 1008.88 1009.05 1009.21 1009.36 1009.48 1009.56 1009.58
1005.73 1005.42 1004.96 1004.36 1003.69 1003.01 1002.40 1001.91 1001.59 1001.45 1001.49 1001.68 1001.98 1002.33 1002.67 1002.97 1003.18 1003.32 1003.38 1003.40 1003.43 1003.49 1003.63 1003.88 1004.23 1004.69 1005.23 1005.81 1006.40 1006.95 1007.44 1007.86 1008.19 1008.45 1008.65 1008.82 1008.97 1009.12 1009.26 1009.41 1009.54 1009.64 1009.68 1009.65
1004.76 1004.34 1003.80 1003.19 1002.54 1001.93 1001.42 1001.06 1000.88 1000.90 1001.10 1001.43 1001.86 1002.32 1002.77 1003.14 1003.43 1003.63 1003.75 1003.83 1003.91 1004.03 1004.22 1004.50 1004.88 1005.36 1005.89 1006.46 1007.01 1007.52 1007.97 1008.34 1008.62 1008.84 1009.00 1009.14 1009.26 1009.39 1009.51 1009.62 1009.71 1009.76 1009.75 1009.66
1003.75 1003.26 1002.71 1002.13 1001.56 1001.07 1000.71 1000.50 1000.49 1000.66 1000.99 1001.45 1001.98 1002.53 1003.05 1003.49 1003.84 1004.10 1004.28 1004.42 1004.55 1004.72 1004.95 1005.26 1005.66 1006.12 1006.64 1007.16 1007.67 1008.13 1008.52 1008.84 1009.07 1009.24 1009.37 1009.47 1009.55 1009.63 1009.71 1009.77 1009.81 1009.80 1009.72 1009.56
1002.84 1002.34 1001.81 1001.31 1000.87 1000.53 1000.33 1000.29 1000.44 1000.74 1001.20 1001.75 1002.35 1002.96 1003.52 1004.01 1004.40 1004.71 1004.94 1005.13 1005.31 1005.51 1005.77 1006.09 1006.48 1006.92 1007.39 1007.87 1008.32 1008.72 1009.05 1009.31 1009.49 1009.62 1009.70 1009.75 1009.79 1009.82 1009.83 1009.83 1009.79 1009.70 1009.55 1009.32
1002.16 1001.68 1001.23 1000.84 1000.54 1000.37 1000.33 1000.46 1000.74 1001.16 1001.70 1002.31 1002.96 1003.59 1004.17 1004.68 1005.09 1005.43 1005.69 1005.91 1006.12 1006.35 1006.61 1006.92 1007.28 1007.68 1008.10 1008.52 1008.90 1009.24 1009.51 1009.72 1009.86 1009.94 1009.98 1009.98 1009.96 1009.92 1009.85 1009.76 1009.64 1009.47 1009.24 1008.95
1001.79 1001.37 1001.02 1000.77 1000.62 1000.60 1000.72 1000.98 1001.37 1001.87 1002.46 1003.10 1003.75 1004.38 1004.95 1005.45 1005.87 1006.21 1006.49 1006.72 1006.94 1007.17 1007.42 1007.70 1008.02 1008.37 1008.72 1009.07 1009.39 1009.67 1009.89 1010.05 1010.15 1010.19 1010.18 1010.13 1010.04 1009.92 1009.78 1009.59 1009.38 1009.12 1008.82 1008.47
1001.73 1001.41 1001.18 1001.06 1001.07 1001.19 1001.44 1001.80 1002.26 1002.81 1003.41 1004.04 1004.67 1005.27 1005.81 1006.28 1006.68 1007.01 1007.28 1007.51 1007.73 1007.93 1008.16 1008.40 1008.67 1008.95 1009.24 1009.52 1009.78 1010.00 1010.18 1010.30 1010.36 1010.36 1010.31 1010.21 1010.05 1009.86 1009.62 1009.35 1009.04 1008.70 1008.33 1007.93
1001.94 1001.73 1001.64 1001.66 1001.80 1002.04 1002.39 1002.82 1003.32 1003.88 1004.46 1005.06 1005.64 1006.18 1006.68 1007.11 1007.47 1007.78 1008.03 1008.25 1008.43 1008.61 1008.80 1008.99 1009.20 1009.42 1009.64 1009.86 1010.07 1010.24 1010.38 1010.46 1010.49 1010.46 1010.37 1010.22 1010.00 1009.74 1009.42 1009.06 1008.67 1008.25 1007.81 1007.37
1002.32 1002.25 1002.30 1002.45 1002.71 1003.05 1003.47 1003.94 1004.45 1004.99 1005.54 1006.08 1006.59 1007.07 1007.50 1007.88 1008.21 1008.48 1008.70 1008.88 1009.04 1009.19 1009.33 1009.47 1009.62 1009.77 1009.94 1010.10 1010.25 1010.38 1010.48 1010.54 1010.55 1010.49 1010.36 1010.17 1009.90 1009.57 1009.18 1008.75 1008.28 1007.80 1007.31 1006.83
1002.79 1002.86 1003.05 1003.33 1003.69 1004.10 1004.57 1005.05 1005.56 1006.06 1006.55 1007.02 1007.47 1007.87 1008.24 1008.56 1008.84 1009.07 1009.26 1009.42 1009.54 1009.65 1009.74 1009.83 1009.92 1010.02 1010.13 1010.23 1010.34 1010.43 1010.50 1010.53 1010.51 1010.43 1010.28 1010.05 1009.74 1009.36 1008.92 1008.43 1007.91 1007.37 1006.84 1006.33
1003.27 1003.49 1003.81 1004.20 1004.64 1005.12 1005.61 1006.09 1006.57 1007.03 1007.46 1007.86 1008.23 1008.56 1008.87 1009.13 1009.36 1009.56 1009.71 1009.83 1009.92 1009.99 1010.04 1010.08 1010.12 1010.16 1010.22 1010.27 1010.34 1010.39 1010.43 1010.43 1010.39 1010.29 1010.11 1009.86 1009.52 1009.11 1008.63 1008.11 1007.55 1006.98 1006.41 1005.87
1003.72 1004.08 1004.52 1005.01 1005.52 1006.04 1006.54 1007.02 1007.46 1007.86 1008.23 1008.56 1008.86 1009.13 1009.37 1009.59 1009.77 1009.93 1010.05 1010.14 1010.20 1010.23 1010.24 1010.24 1010.23 1010.22 1010.23 1010.24 1010.25 1010.27 1010.27 1010.25 1010.18 1010.06 1009.87 1009.60 1009.25 1008.82 1008.33 1007.78 1007.21 1006.62 1006.03 1005.46
1004.18 1004.65 1005.19 1005.75 1006.31 1006.85 1007.35 1007.81 1008.21 1008.56 1008.87 1009.14 1009.38 1009.59 1009.78 1009.94 1010.09 1010.21 1010.30 1010.36 1010.39 1010.38 1010.36 1010.32 1010.27 1010.22 1010.18 1010.14 1010.12 1010.09 1010.06 1010.01 1009.92 1009.78 1009.58 1009.30 1008.95 1008.52 1008.03 1007.48 1006.90 1006.30 1005.70 1005.12
1004.67 1005.24 1005.85 1006.46 1007.05 1007.59 1008.08 1008.51 1008.87 1009.17 1009.43 1009.64 1009.82 1009.98 1010.12 1010.25 1010.35 1010.44 1010.50 1010.53 1010.53 1010.50 1010.44 1010.37 1010.28 1010.19 1010.11 1010.03 1009.96 1009.90 1009.83 1009.75 1009.64 1009.49 1009.27 1008.99 1008.65 1008.23 1007.75 1007.22 1006.65 1006.05 1005.45 1004.85
1005.25 1005.89 1006.54 1007.18 1007.77 1008.31 1008.77 1009.16 1009.49 1009.74 1009.95 1010.11 1010.25 1010.36 1010.46 1010.55 1010.62 1010.67 1010.70 1010.70 1010.68 1010.62 1010.53 1010.42 1010.30 1010.18 1010.06 1009.95 1009.84 1009.74 1009.64 1009.53 1009.40 1009.23 1009.01 1008.73 1008.39 1007.99 1007.53 1007.02 1006.47 1005.89 1005.30 1004.69
1005.99 1006.66 1007.32 1007.96 1008.54 1009.05 1009.48 1009.83 1010.11 1010.33 1010.49 1010.61 1010.71 1010.79 1010.85 1010.90 1010.94 1010.96 1010.96 1010.93 1010.87 1010.78 1010.67 1010.53 1010.38 1010.23 1010.08 1009.93 1009.80 1009.67 1009.54 1009.40 1009.25 1009.07 1008.84 1008.57 1008.24 1007.85 1007.42 1006.93 1006.40 1005.84 1005.25 1004.64
1006.88 1007.56 1008.21 1008.82 1009.37 1009.84 1010.23 1010.55 1010.79 1010.97 1011.11 1011.20 1011.26 1011.31 1011.34 1011.36 1011.36 1011.34 1011.31 1011.24 1011.15 1011.03 1010.89 1010.73 1010.55 1010.37 1010.20 1010.03 1009.87 1009.71 1009.56 1009.40 1009.23 1009.03 1008.80 1008.53 1008.21 1007.84 1007.42 1006.95 1006.44 1005.89 1005.31 1004.70
1007.93 1008.58 1009.20 1009.77 1010.27 1010.70 1011.06 1011.34 1011.55 1011.71 1011.82 1011.89 1011.94 1011.96 1011.96 1011.94 1011.91 1011.85 1011.78 1011.67 1011.54 1011.39 1011.22 1011.03 1010.83 1010.63 1010.43 1010.24 1010.06 1009.89 1009.71 1009.54 1009.35 1009.14 1008.90 1008.63 1008.31 1007.94 1007.53 1007.07 1006.57 1006.03 1005.46 1004.85
1009.06 1009.67 1010.25 1010.77 1011.23 1011.62 1011.94 1012.20 1012.40 1012.54 1012.64 1012.70 1012.73 1012.73 1012.71 1012.66 1012.59 1012.50 1012.38 1012.23 1012.06 1011.86 1011.66 1011.44 1011.21 1010.99 1010.78 1010.57 1010.37 1010.18 1009.99 1009.80 1009.60 1009.37 1009.12 1008.84 1008.51 1008.14 1007.72 1007.26 1006.76 1006.22 1005.64 1005.03
1010.20 1010.77 1011.30 1011.77 1012.19 1012.55 1012.85 1013.10 1013.29 1013.44 1013.54 1013.61 1013.63 1013.62 1013.58 1013.50 1013.40 1013.26 1013.09 1012.89 1012.67 1012.44 1012.19 1011.94 1011.69 1011.44 1011.21 1010.98 1010.77 1010.56 1010.36 1010.15 1009.93 1009.69 1009.41 1009.11 1008.76 1008.37 1007.94 1007.46 1006.94 1006.39 1005.80 1005.18
1011.29 1011.81 1012.29 1012.73 1013.12 1013.46 1013.76 1014.01 1014.21 1014.37 1014.49 1014.56 1014.59 1014.57 1014.52 1014.41 1014.27 1014.09 1013.87 1013.63 1013.36 1013.08 1012.79 1012.50 1012.22 1011.94 1011.69 1011.44 1011.21 1010.98 1010.76 1010.53 1010.28 1010.01 1009.71 1009.38 1009.00 1008.58 1008.11 1007.61 1007.07 1006.49 1005.88 1005.24
Thickness
5757 5765 5766 5765 5763 5760 5756 5751 5745 5754 5758 5775 5782 5785 5787 5790 5792 5792 5792 5791 5791 5789 5786 5785 5783 5781 5779 5776 5774 5770 5766 5762 5759 5756 5754 5751 5749 5747 5744 5741 5739 5736 5733 5730
5751 5759 5760 5757 5760 5759 5758 5757 5755 5759 5763 5779 5783 5784 5784 5786 5787 5787 5788 5788 5788 5786 5783 5781 5779 5777 5775 5773 5769 5766 5762 5758 5755 5752 5749 5746 5744 5741 5739 5736 5733 5731 5729 5726
5731 5745 5748 5738 5751 5752 5754 5758 5757 5754 5765 5774 5775 5777 5779 5781 5782 5783 5785 5786 5785 5783 5781 5778 5776 5774 5771 5769 5766 5762 5758 5754 5750 5746 5743 5741 5739 5736 5733 5730 5728 5725 5723 5721
5719 5730 5719 5741 5759 5759 5755 5757 5761 5763 5767 5771 5774 5776 5778 5779 5779 5779 5780 5780 5780 5779 5777 5775 5773 5770 5768 5764 5760 5756 5753 5749 5746 5742 5739 5736 5733 5730 5727 5725 5722 5719 5717 5715
5707 5710 5719 5739 5751 5751 5746 5747 5758 5758 5762 5765 5768 5768 5769 5775 5776 5776 5777 5777 5776 5775 5772 5769 5766 5764 5760 5756 5753 5750 5746 5743 5741 5737 5734 5730 5726 5724 5722 5719 5716 5713 5711 5709
5703 5706 5705 5730 5749 5755 5747 5736 5754 5754 5754 5756 5758 5748 5758 5771 5771 5771 5772 5771 5770 5768 5765 5762 5759 5756 5752 5749 5746 5744 5741 5739 5735 5732 5729 5724 5721 5718 5715 5713 5710 5707 5705 5703
5698 5700 5710 5733 5744 5747 5725 5730 5749 5751 5751 5751 5750 5753 5760 5764 5764 5764 5764 5764 5763 5760 5757 5755 5753 5749 5745 5743 5740 5739 5737 5733 5729 5725 5722 5719 5715 5712 5709 5706 5703 5700 5697 5695
5689 5692 5703 5733 5733 5729 5730 5741 5744 5745 5748 5747 5748 5751 5753 5754 5753 5754 5754 5753 5752 5750 5748 5748 5746 5743 5739 5736 5736 5733 5730 5727 5722 5718 5716 5713 5709 5706 5703 5699 5695 5692 5689 5687
5697 5702 5718 5726 5729 5733 5734 5734 5738 5740 5742 5742 5740 5741 5742 5742 5742 5743 5744 5744 5742 5740 5739 5738 5738 5736 5732 5731 5729 5725 5722 5719 5716 5713 5709 5706 5702 5699 5695 5692 5688 5685 5682 5679
5694 5705 5715 5720 5724 5728 5730 5731 5734 5736 5737 5737 5734 5733 5732 5732 5732 5732 5733 5733 5733 5732 5731 5729 5729 5728 5726 5724 5722 5718 5714 5711 5708 5705 5701 5698 5695 5692 5688 5685 5681 5678 5675 5672
5688 5700 5707 5715 5719 5722 5724 5726 5728 5730 5731 5730 5729 5727 5725 5723 5723 5723 5723 5723 5724 5722 5721 5720 5719 5717 5716 5715 5714 5710 5706 5702 5699 5696 5693 5690 5686 5684 5682 5679 5676 5673 5670 5666
5684 5696 5697 5703 5712 5715 5715 5716 5719 5720 5720 5721 5721 5719 5718 5716 5716 5715 5714 5713 5713 5712 5711 5710 5709 5707 5706 5705 5704 5701 5696 5693 5690 5687 5684 5681 5677 5674 5672 5671 5668 5665 5663 5660
5689 5695 5696 5701 5705 5708 5708 5710 5712 5713 5712 5711 5711 5711 5710 5707 5707 5706 5705 5704 5703 5703 5703 5701 5699 5698 5697 5695 5693 5691 5687 5683 5681 5678 5675 5673 5670 5667 5664 5661 5659 5657 5654 5652
5687 5688 5689 5694 5696 5700 5701 5702 5704 5703 5703 5703 5702 5701 5700 5698 5696 5696 5695 5694 5694 5694 5693 5692 5689 5687 5687 5685 5683 5680 5678 5675 5671 5669 5667 5665 5662 5659 5657 5654 5651 5648 5646 5643
5681 5683 5684 5688 5690 5691 5692 5692 5691 5690 5692 5692 5691 5690 5690 5688 5686 5685 5685 5684 5684 5683 5682 5680 5679 5678 5678 5676 5673 5670 5668 5666 5663 5660 5658 5657 5654 5652 5649 5646 5644 5641 5639 5636
5673 5676 5677 5678 5679 5681 5681 5681 5680 5680 5682 5681 5681 5681 5680 5679 5678 5676 5676 5675 5674 5672 5671 5670 5669 5670 5669 5667 5664 5662 5660 5657 5654 5651 5650 5648 5646 5643 5641 5639 5636 5634 5632 5630
5662 5663 5665 5666 5668 5671 5672 5672 5672 5673 5673 5672 5672 5672 5672 5670 5668 5667 5666 5666 5665 5663 5662 5662 5661 5661 5660 5659 5657 5655 5653 5650 5647 5644 5642 5640 5638 5636 5634 5632 5629 5627 5625 5623
5658 5659 5660 5661 5661 5662 5663 5664 5664 5664 5664 5665 5665 5663 5663 5661 5659 5659 5658 5657 5655 5653 5653 5654 5653 5651 5651 5650 5648 5647 5645 5642 5640 5637 5634 5632 5630 5628 5627 5624 5622 5620 5619 5616
5650 5651 5653 5654 5655 5655 5656 5656 5655 5655 5656 5655 5655 5653 5653 5653 5652 5650 5649 5647 5646 5645 5646 5647 5645 5644 5643 5642 5640 5638 5637 5634 5632 5629 5627 5624 5623 5621 5619 5617 5615 5614 5612 5610
5642 5644 5645 5647 5648 5647 5647 5647 5647 5647 5647 5646 5646 5645 5644 5644 5643 5642 5640 5638 5639 5640 5641 5639 5638 5636 5635 5634 5632 5631 5629 5627 5625 5623 5620 5618 5616 5614 5612 5610 5609 5607 5606 5604
5633 5635 5636 5637 5637 5638 5639 5639 5639 5638 5638 5638 5637 5637 5636 5636 5635 5634 5633 5632 5633 5634 5632 5631 5630 5629 5628 5626 5625 5623 5621 5619 5617 5615 5612 5610 5608 5607 5605 5603 5602 5600 5598 5597
5624 5626 5627 5627 5628 5628 5629 5630 5631 5631 5630 5630 5630 5629 5628 5627 5627 5627 5626 5626 5627 5626 5625 5624 5623 5622 5620 5619 5618 5616 5614 5612 5610 5608 5605 5603 5601 5599 5597 5596 5594 5593 5591 5590
5616 5618 5619 5619 5619 5619 5620 5621 5621 5622 5621 5621 5621 5621 5620 5620 5620 5619 5619 5620 5620 5619 5618 5617 5616 5614 5613 5612 5611 5609 5607 5604 5602 5601 5599 5597 5595 5593 5591 5589 5587 5585 5584 5583
5608 5610 5611 5612 5611 5611 5611 5612 5613 5614 5614 5614 5614 5614 5614 5613 5613 5613 5614 5613 5613 5611 5610 5609 5608 5607 5606 5605 5604 5602 5600 5597 5596 5594 5592 5590 5588 5586 5584 5583 5581 5579 5578 5576
5601 5602 5603 5604 5603 5603 5604 5605 5606 5607 5607 5607 5607 5608 5607 5607 5607 5607 5607 5606 5605 5604 5603 5603 5601 5600 5599 5598 5597 5595 5593 5591 5590 5588 5586 5585 5583 5581 5578 5577 5575 5573 5571 5570
5594 5595 5596 5598 5598 5598 5598 5598 5599 5599 5599 5599 5599 5600 5600 5601 5601 5601 5600 5599 5598 5597 5596 5595 5595 5594 5593 5592 5591 5589 5587 5585 5584 5582 5581 5579 5578 5575 5573 5571 5569 5567 5565 5563
5588 5589 5590 5591 5592 5593 5594 5593 5593 5593 5593 5593 5594 5594 5595 5595 5595 5594 5594 5592 5592 5591 5589 5589 5589 5588 5587 5586 5585 5583 5581 5579 5578 5576 5575 5573 5571 5569 5567 5565 5563 5561 5559 5557